Zurück zum Katalog

DELTA 1 DEB

AktivSSO
NORAD 18467·DEBRIS·🇺🇸 United States

Gestartet Mar 5, 1978 von Vandenberg Space Force Base

Loading…

Nächste Überflüge (nächste 24 Stunden)

TLE

AktuellSource: Space-Track

Epoche: Sep 14, 2026, 00:38 UTC

1 18467U 78026HE  26257.02677654  .00000212  00000-0  10312-3 0  9993
2 18467  98.8186 282.7851 0093408 142.5806 248.3157 14.25879211157475

Verfolge DELTA 1 DEB in Echtzeit mit AllMySat

Download on the App Store